sat.trackr.live / text

‹ back to catalog

STARLINK-6206

NORAD 56876 · 2023-083A

PAYLOAD ACTIVE UNKNOWN

§ Identity

Operator
Country
US
Launch date
2023-06-12
Launch site
AFETR
Launch vehicle
Mass (kg)
RCS (m²)

Purposes: comms

External: N2YO · Heavens-Above · Gunter

§ Orbital elements

Epoch: 2026-09-20T21:44:14.433504Z

Period
94.27 min
Inclination
43.0077°
Eccentricity
0.0003027
Mean motion
15.27576735 rev/d
Perigee alt
481.0 km
Apogee alt
485.1 km
Semi-major
6,861.2 km
B*
2.6068e-5
RAAN
62.9351°
Arg perigee
260.9235°
Mean anomaly
99.1274°
Rev number
18,148

§ Raw data

STARLINK-62061 56876U 23083A   26263.90572261  .00000454  00000+0  26068-4 0  99972 56876  43.0077  62.9351 0003027 260.9235  99.1274 15.27576735181482

JSON: /api/v1/satellites/56876 · /tle

For live sub-satellite position, see the globe view (requires WebGL).

§ Visibility from observer

Set your observer location to see the next 7 days of passes ≥ 10°. The values pass through the URL so the page stays shareable.

No JS? Fill the form by hand. The geolocation button needs JavaScript.